sat.trackr.live / text

‹ back to catalog

GSAT0210 (GALILEO 13)

NORAD 41550 · 2016-030B

PAYLOAD ACTIVE UNKNOWN

§ Identity

Operator
Country
ESA
Launch date
2016-05-24
Launch site
FRGUI
Launch vehicle
Mass (kg)
RCS (m²)
15.89

Purposes: earth_obs, nav

External: N2YO · Heavens-Above · Gunter

§ Orbital elements

Epoch: 2026-09-18T21:45:58.982688Z

Period
844.71 min
Inclination
55.0730°
Eccentricity
0.0003822
Mean motion
1.70473632 rev/d
Perigee alt
23,210.9 km
Apogee alt
23,233.5 km
Semi-major
29,600.4 km
B*
0.0000e+0
RAAN
219.1166°
Arg perigee
254.6532°
Mean anomaly
105.2782°
Rev number
6,426

§ Raw data

GSAT0210 (GALILEO 13)1 41550U 16030B   26261.90693267  .00000017  00000+0  00000+0 0  99902 41550  55.0730 219.1166 0003822 254.6532 105.2782  1.70473632 64261

JSON: /api/v1/satellites/41550 · /tle

For live sub-satellite position, see the globe view (requires WebGL).

§ Visibility from observer

Set your observer location to see the next 7 days of passes ≥ 10°. The values pass through the URL so the page stays shareable.

No JS? Fill the form by hand. The geolocation button needs JavaScript.